TURKMENALEM52E/MONACOSAT

Last updated on Nov. 13, 2019, 4:20 a.m. UTC

1 40617U 15023A   19316.85310365  .00000118  00000-0  00000+0 0  9999
2 40617   0.0126 319.7268 0002780 264.8908 186.2239  1.00271383 16686
UTC
Height (km)
Latitude
Longitude
Inclination
Orbital Period
UTC large
Height (km)
Speed (km/s)
/
Latitude / Longitude
Inclination (degrees)
Orbital Period (minutes)
Azimuth
Elevation
Range (km)
Doppler Factor
iOS Compass Heading
iOS Angle

Next 30 passes for location: Hong Kong

Rise time Rise Azimuth (degrees) Set time Set Azimuth (degrees) Duration Max altitude (degrees)

No matching passes for this satellites